Els Cortals - Les Guilleries





Hora UTC 08:15
Temperatura 21.4 ºC
Humitat 70.0 %
Pressió 1015.1 hPa
Pluja 0.0 mm
Velocitat vent 0.0 km/h
Direcció vent SW

Dades diàries 2022-07-07



Hora UTC (hivern +1h; estiu +2h)
Temperatura (ºC) Humitat (%) Pressió (hPa) Velocitat vent (km/h) Precipitació (mm)
Hora UTC Aire Humitat Pressió Vel. Dir. Vel. Max Dir. Intent. màx 5 min.
00:05 18.1 80.0 1014.6 0.0 SW 0.0 0.0
00:10 17.9 80.0 1014.7 0.0 SW 0.0 0.0
00:15 17.7 80.0 1014.7 0.0 SW 0.0 0.0
00:20 17.4 81.0 1014.7 0.0 SW 0.0 0.0
00:25 17.3 81.0 1014.7 0.0 SW 0.0 0.0
00:30 17.2 82.0 1014.6 0.0 SW 0.0 0.0
00:35 17.1 82.0 1014.7 0.0 SW 0.0 0.0
00:40 16.9 82.0 1014.5 0.0 SW 0.0 0.0
00:45 16.9 83.0 1014.6 0.0 SW 0.0 0.0
00:50 16.9 83.0 1014.5 0.0 SW 0.0 0.0
00:55 16.9 83.0 1014.5 0.0 SW 0.0 0.0
01:00 17.0 83.0 1014.5 0.0 SW 0.0 0.0
01:05 17.1 84.0 1014.5 0.0 SW 0.0 0.0
01:10 17.2 84.0 1014.5 0.0 SW 0.0 0.0
01:15 17.2 84.0 1014.5 0.0 SW 0.0 0.0
01:20 17.2 84.0 1014.5 0.0 SW 0.0 0.0
01:25 17.2 84.0 1014.4 0.0 SW 0.0 0.0
01:30 17.1 84.0 1014.4 0.0 SW 0.0 0.0
01:35 17.1 84.0 1014.5 0.0 SW 0.0 0.0
01:40 17.1 84.0 1014.4 0.0 SW 0.0 0.0
01:45 17.1 85.0 1014.4 0.0 SW 1.6 0.0
01:50 17.1 85.0 1014.4 0.0 SW 1.6 0.0
01:55 17.1 85.0 1014.3 0.0 SW 1.6 0.0
02:00 17.0 85.0 1014.3 0.0 SW 1.6 0.0
02:05 17.1 85.0 1014.2 0.0 SW 1.6 0.0
02:10 17.1 85.0 1014.1 0.0 SW 0.0 0.0
02:15 17.2 85.0 1014.2 0.0 SW 0.0 0.0
02:20 17.1 84.0 1014.0 3.2 NNW 9.7 0.0
02:25 17.0 84.0 1014.1 6.4 NW 9.7 0.0
02:30 16.8 84.0 1013.9 6.4 NW 11.3 0.0
02:35 16.7 85.0 1014.1 4.8 NW 11.3 0.0
02:40 16.6 85.0 1014.1 8.0 NW 11.3 0.0
02:45 16.4 85.0 1014.0 3.2 NNW 9.7 0.0
02:50 16.3 86.0 1014.0 9.7 NW 11.3 0.0
02:55 16.3 86.0 1014.1 6.4 NW 12.9 0.0
03:00 16.3 87.0 1014.1 0.0 NNW 12.9 0.0
03:05 16.3 87.0 1014.0 0.0 NNW 12.9 0.0
03:10 16.3 87.0 1014.0 3.2 NNW 12.9 0.0
03:15 16.3 87.0 1014.1 0.0 NNW 6.4 0.0
03:20 16.4 87.0 1014.1 0.0 NNW 6.4 0.0
03:25 16.4 87.0 1014.2 0.0 NNW 0.0 0.0
03:30 16.3 87.0 1014.1 0.0 NNW 0.0 0.0
03:35 16.2 86.0 1014.1 0.0 NNW 0.0 0.0
03:40 16.3 86.0 1014.0 0.0 NNW 0.0 0.0
03:45 16.3 86.0 1014.1 0.0 NNW 0.0 0.0
03:50 16.3 86.0 1014.1 0.0 NNW 0.0 0.0
03:55 16.4 86.0 1014.2 0.0 NNW 1.6 0.0
04:00 16.4 86.0 1014.2 0.0 NNW 1.6 0.0
04:05 16.4 85.0 1014.2 3.2 NNW 8.0 0.0
04:10 16.3 85.0 1014.1 0.0 NNW 8.0 0.0
04:15 16.2 85.0 1014.2 0.0 NNW 8.0 0.0
04:20 16.1 85.0 1014.1 0.0 NNW 8.0 0.0
04:25 15.9 85.0 1014.1 0.0 NNW 8.0 0.0
04:30 15.9 85.0 1014.2 0.0 NNW 8.0 0.0
04:35 15.9 85.0 1014.2 0.0 NNW 8.0 0.0
04:40 15.8 85.0 1014.2 0.0 NNW 8.0 0.0
04:45 15.8 85.0 1014.2 0.0 NNW 8.0 0.0
04:50 15.8 85.0 1014.4 1.6 NNW 3.2 0.0
04:55 16.0 85.0 1014.5 0.0 NNW 3.2 0.0
05:00 16.1 85.0 1014.5 0.0 NNW 3.2 0.0
05:05 16.2 84.0 1014.5 0.0 NNW 3.2 0.0
05:10 16.3 84.0 1014.6 0.0 NNW 3.2 0.0
05:15 16.3 84.0 1014.7 0.0 NNW 3.2 0.0
05:20 16.4 84.0 1014.6 0.0 NNW 3.2 0.0
05:25 16.6 84.0 1014.7 0.0 NNW 6.4 0.0
05:30 16.7 84.0 1014.6 0.0 NNW 6.4 0.0
05:35 16.7 84.0 1014.7 0.0 NNW 6.4 0.0
05:40 16.7 84.0 1014.7 0.0 NNW 6.4 0.0
05:45 16.8 84.0 1014.8 8.0 NNW 8.0 0.0
05:50 16.9 84.0 1014.7 6.4 NW 11.3 0.0
05:55 17.1 84.0 1014.8 3.2 NW 11.3 0.0
06:00 17.3 84.0 1014.8 6.4 NW 11.3 0.0
06:05 17.4 84.0 1014.8 8.0 NNW 11.3 0.0
06:10 17.6 83.0 1014.9 3.2 NW 11.3 0.0
06:15 17.8 83.0 1014.8 4.8 NW 11.3 0.0
06:20 17.9 82.0 1014.9 8.0 NNW 11.3 0.0
06:25 18.1 82.0 1014.8 1.6 NNW 11.3 0.0
06:30 18.4 82.0 1014.8 3.2 NNW 11.3 0.0
06:35 18.9 82.0 1014.8 3.2 NNW 11.3 0.0
06:40 19.5 80.0 1014.7 6.4 NNW 9.7 0.0
06:45 20.0 78.0 1014.7 0.0 NNW 9.7 0.0
06:50 20.4 76.0 1014.7 0.0 NNW 9.7 0.0
06:55 20.7 75.0 1014.7 0.0 NNW 9.7 0.0
07:00 20.9 71.0 1014.7 0.0 NNW 9.7 0.0
07:05 21.3 69.0 1014.8 1.6 ESE 9.7 0.0
07:10 21.4 70.0 1014.8 0.0 SE 9.7 0.0
07:15 21.6 71.0 1014.8 0.0 E 9.7 0.0
07:20 21.8 70.0 1014.8 0.0 E 8.0 0.0
07:25 21.9 68.0 1014.8 0.0 E 8.0 0.0
07:30 22.1 69.0 1014.8 0.0 E 8.0 0.0
07:35 22.1 69.0 1014.7 0.0 E 6.4 0.0
07:40 22.2 69.0 1014.7 0.0 E 6.4 0.0
07:45 22.3 69.0 1014.7 1.6 E 6.4 0.0
07:50 22.5 67.0 1014.7 3.2 SE 9.7 0.0
07:55 22.6 65.0 1014.7 1.6 SSW 9.7 0.0
08:00 22.4 66.0 1014.9 0.0 NNE 9.7 0.0
08:05 22.3 67.0 1015.0 9.7 SSE 9.7 0.0
08:10 21.6 68.0 1015.1 3.2 SSW 12.9 0.0
08:15 21.4 70.0 1015.1 0.0 SW 12.9 0.0
Màxima 22.6 87.0 1015.1 9.7 SSE 12.9 0.0
Mínima 15.8 65.0 1013.9
Total 0.0